Weather History for Elizabethton, TN

Change the Weather History Date:

Monday, March 18, 2013

  Actual Average (KTRI) Record (KTRI)
Temperature  
Mean Temperature 50 °F 47 °F  
Max Temperature 57 °F 60 °F 85 °F (1943)
Min Temperature 42 °F 35 °F 15 °F (1967)
Degree Days  
Heating Degree Days 16 18  
Month to date heating degree days 361  
Since 1 July heating degree days 3743  
Cooling Degree Days 0 0  
Month to date cooling degree days 0  
Year to date cooling degree days 0  
Moisture  
Dew Point 42 °F    
Average Humidity 81    
Maximum Humidity 100    
Minimum Humidity 58    
Precipitation  
Precipitation 0.00 in 0.11 in 1.95 in (1955)
Month to date precipitation 1.97  
Year to date precipitation 8.79  
Snow  
Snow 0.00 in 0.00 in - ()
Month to date snowfall 0.9  
Since 1 July snowfall 11.7  
Snow Depth -    
Sea Level Pressure  
Sea Level Pressure 29.90 in    
Wind  
Wind Speed 8 mph (East)    
Max Wind Speed 12 mph    
Max Gust Speed -    
Visibility 9 miles    
Events Rain    
T = Trace of Precipitation, MM = Missing Value Source: NWS Daily Summary

Daily Weather History Graph

Daily Weather History Graph

Search for Another Location

Airport:

Trip Planner

Search our weather history database for the weather conditions in past years. The results will help you decide how hot, cold, wet, or windy it might be!

Date:

Astronomy

Mar. 18, 2013 Rise Set
Actual Time 7:34 AM EDT 7:38 PM EDT
Civil Twilight 7:09 AM EDT 8:04 PM EDT
Nautical Twilight 6:39 AM EDT 8:34 PM EDT
Astronomical Twilight 6:08 AM EDT 9:05 PM EDT
Moon 11:43 AM EDT (3/18) 1:27 AM EDT (3/18)
Length of Visible Light 12h 55m
Length of Day
12h 04m
Waxing Crescent, 40% of the Moon is Illuminated
Mar 18
Waxing Crescent
Mar 19
First Quarter
Mar 27
Full
Apr 3
Last Quarter
Apr 10
New

Hourly Weather History & Observations

Time (EDT) Temp. Windchill Dew Point Humidity Pressure Visibility Wind Dir Wind Speed Gust Speed Precip Events Conditions
12:15 AM 50.0 °F - 42.8 °F 76% 29.96 in 10.0 mi ENE 9.2 mph - N/A   Clear
12:35 AM 48.2 °F - 41.0 °F 76% 29.97 in 10.0 mi East 10.4 mph - N/A   Clear
12:55 AM 48.2 °F - 41.0 °F 76% 29.97 in 10.0 mi ENE 11.5 mph - N/A   Clear
1:15 AM 48.2 °F - 39.2 °F 71% 29.97 in 10.0 mi East 9.2 mph - N/A   Clear
1:35 AM 46.4 °F 41.1 °F 41.0 °F 81% 29.97 in 10.0 mi ENE 11.5 mph - N/A   Clear
1:55 AM 46.4 °F 41.1 °F 39.2 °F 76% 29.97 in 10.0 mi ENE 11.5 mph - N/A   Clear
2:15 AM 46.4 °F 41.5 °F 39.2 °F 76% 29.97 in 10.0 mi ENE 10.4 mph - N/A   Clear
2:35 AM 46.4 °F 41.5 °F 39.2 °F 76% 29.97 in 10.0 mi ENE 10.4 mph - N/A   Clear
2:55 AM 44.6 °F 38.8 °F 37.4 °F 76% 29.98 in 10.0 mi ENE 11.5 mph - N/A   Clear
3:15 AM 44.6 °F 39.7 °F 37.4 °F 76% 29.98 in 10.0 mi East 9.2 mph - N/A   Clear
3:35 AM 44.6 °F 39.2 °F 37.4 °F 76% 29.98 in 10.0 mi East 10.4 mph - N/A   Clear
3:55 AM 44.6 °F 39.7 °F 37.4 °F 76% 29.98 in 10.0 mi ENE 9.2 mph - N/A   Clear
4:15 AM 44.6 °F 39.7 °F 37.4 °F 76% 29.98 in 10.0 mi East 9.2 mph - N/A   Clear
4:35 AM 44.6 °F 39.7 °F 37.4 °F 76% 29.98 in 10.0 mi ESE 9.2 mph - N/A   Clear
4:55 AM 44.6 °F 40.2 °F 37.4 °F 76% 29.97 in 10.0 mi East 8.1 mph - N/A   Clear
5:15 AM 42.8 °F 37.5 °F 37.4 °F 81% 29.97 in 10.0 mi East 9.2 mph - N/A   Clear
5:35 AM 42.8 °F 37.0 °F 37.4 °F 81% 29.96 in 10.0 mi East 10.4 mph - N/A   Clear
5:55 AM 42.8 °F 38.0 °F 37.4 °F 81% 29.95 in 10.0 mi ESE 8.1 mph - N/A   Clear
6:15 AM 42.8 °F 38.0 °F 37.4 °F 81% 29.96 in 10.0 mi ESE 8.1 mph - N/A   Clear
6:35 AM 42.8 °F 38.0 °F 37.4 °F 81% 29.95 in 10.0 mi ESE 8.1 mph - N/A   Clear
6:55 AM 42.8 °F 38.0 °F 37.4 °F 81% 29.95 in 10.0 mi East 8.1 mph - N/A   Partly Cloudy
7:15 AM 42.8 °F 37.5 °F 37.4 °F 81% 29.95 in 10.0 mi ESE 9.2 mph - N/A   Scattered Clouds
7:35 AM 42.8 °F 38.0 °F 37.4 °F 81% 29.95 in 10.0 mi East 8.1 mph - N/A   Partly Cloudy
7:55 AM 42.8 °F 38.0 °F 37.4 °F 81% 29.95 in 10.0 mi ESE 8.1 mph - N/A   Scattered Clouds
8:15 AM 44.6 °F 40.2 °F 37.4 °F 76% 29.96 in 10.0 mi East 8.1 mph - N/A   Overcast
8:35 AM 46.4 °F 41.5 °F 37.4 °F 71% 29.94 in 10.0 mi East 10.4 mph - N/A   Overcast
8:55 AM 46.4 °F 42.4 °F 37.4 °F 71% 29.94 in 10.0 mi ESE 8.1 mph - N/A   Mostly Cloudy
9:15 AM 48.2 °F - 39.2 °F 71% 29.92 in 10.0 mi East 11.5 mph - N/A   Partly Cloudy
9:35 AM 48.2 °F - 39.2 °F 71% 29.93 in 10.0 mi ENE 10.4 mph - N/A   Mostly Cloudy
9:55 AM 48.2 °F - 39.2 °F 71% 29.93 in 10.0 mi East 8.1 mph - N/A   Mostly Cloudy
10:15 AM 48.2 °F - 39.2 °F 71% 29.93 in 10.0 mi East 9.2 mph - N/A   Overcast
10:35 AM 50.0 °F - 39.2 °F 66% 29.93 in 10.0 mi East 11.5 mph - N/A   Mostly Cloudy
10:55 AM 51.8 °F - 41.0 °F 67% 29.92 in 10.0 mi East 9.2 mph - N/A   Scattered Clouds
11:35 AM 55.4 °F - 42.8 °F 63% 29.90 in 10.0 mi SE 9.2 mph - N/A   Clear
11:55 AM 57.2 °F - 42.8 °F 59% 29.90 in 10.0 mi ESE 6.9 mph - N/A   Clear
12:15 PM 55.4 °F - 41.0 °F 58% 29.90 in 10.0 mi ESE 4.6 mph - N/A   Partly Cloudy
12:35 PM 55.4 °F - 41.0 °F 58% 29.88 in 10.0 mi East 6.9 mph - N/A   Scattered Clouds
12:55 PM 57.2 °F - 42.8 °F 59% 29.87 in 10.0 mi East 4.6 mph - N/A   Scattered Clouds
1:15 PM 57.2 °F - 42.8 °F 59% 29.86 in 10.0 mi ENE 6.9 mph - N/A   Mostly Cloudy
1:35 PM 55.4 °F - 42.8 °F 63% 29.86 in 10.0 mi ENE 4.6 mph - N/A   Overcast
1:55 PM 57.2 °F - 42.8 °F 59% 29.85 in 10.0 mi Calm Calm - N/A   Overcast
2:15 PM 55.4 °F - 42.8 °F 63% 29.86 in 9.0 mi Variable 3.5 mph - N/A Rain Light Rain
2:35 PM 53.6 °F - 42.8 °F 67% 29.86 in 10.0 mi East 8.1 mph - N/A Rain Light Rain
2:55 PM 51.8 °F - 44.6 °F 76% 29.85 in 10.0 mi East 6.9 mph - N/A   Overcast
3:15 PM 51.8 °F - 44.6 °F 76% 29.83 in 10.0 mi East 8.1 mph - N/A Rain Light Rain
3:35 PM 50.0 °F - 44.6 °F 82% 29.84 in 10.0 mi Calm Calm - N/A   Mostly Cloudy
3:55 PM 50.0 °F - 46.4 °F 87% 29.85 in 8.0 mi Calm Calm - N/A Rain Light Rain
4:15 PM 48.2 °F - 46.4 °F 93% 29.86 in 5.0 mi NNW 4.6 mph - N/A Rain Heavy Rain
4:35 PM 50.0 °F - 46.4 °F 87% 29.87 in 4.0 mi North 9.2 mph - N/A Rain Heavy Rain
4:55 PM 50.0 °F - 46.4 °F 87% 29.89 in 6.0 mi Calm Calm - N/A Rain Light Rain
5:15 PM 50.0 °F - 48.2 °F 94% 29.92 in 7.0 mi Calm Calm - N/A Rain Rain
5:35 PM 48.2 °F - 48.2 °F 100% 29.92 in 4.0 mi SSW 4.6 mph - N/A Rain Rain
5:55 PM 48.2 °F - 48.2 °F 100% 29.90 in 7.0 mi ENE 4.6 mph - N/A Rain Rain
6:15 PM 48.2 °F - 48.2 °F 100% 29.91 in 6.0 mi Calm Calm - N/A Rain Rain
6:35 PM 48.2 °F - 48.2 °F 100% 29.90 in 5.0 mi ENE 3.5 mph - N/A Rain Heavy Rain
6:55 PM 48.2 °F - 48.2 °F 100% 29.89 in 5.0 mi NE 4.6 mph - N/A Rain Rain
7:15 PM 48.2 °F - 48.2 °F 100% 29.88 in 10.0 mi ENE 4.6 mph - N/A Rain Light Rain
7:35 PM 48.2 °F - 48.2 °F 100% 29.84 in 9.0 mi East 6.9 mph - N/A Rain Light Rain
7:55 PM 48.2 °F - 46.4 °F 93% 29.82 in 10.0 mi NNE 8.1 mph - N/A Rain Light Rain
8:15 PM 48.2 °F - 46.4 °F 93% 29.82 in 10.0 mi NNE 4.6 mph - N/A   Partly Cloudy
8:35 PM 48.2 °F - 46.4 °F 93% 29.80 in 10.0 mi East 5.8 mph - N/A   Clear
8:55 PM 48.2 °F - 46.4 °F 93% 29.81 in 10.0 mi ESE 5.8 mph - N/A   Partly Cloudy
9:15 PM 46.4 °F 44.3 °F 46.4 °F 100% 29.80 in 10.0 mi ENE 4.6 mph - N/A   Scattered Clouds
9:35 PM 46.4 °F 44.3 °F 46.4 °F 100% 29.81 in 10.0 mi ENE 4.6 mph - N/A   Clear
9:55 PM 46.4 °F - 46.4 °F 100% 29.82 in 10.0 mi Calm Calm - N/A   Clear
10:15 PM 46.4 °F - 44.6 °F 93% 29.82 in 10.0 mi Calm Calm - N/A   Clear
10:35 PM 44.6 °F - 44.6 °F 100% 29.81 in 10.0 mi Calm Calm - N/A   Mostly Cloudy
10:55 PM 44.6 °F - 44.6 °F 100% 29.83 in 10.0 mi Calm Calm - N/A   Overcast
11:15 PM 46.4 °F - 46.4 °F 100% 29.82 in 10.0 mi Calm Calm - N/A   Overcast
11:55 PM 46.4 °F - 46.4 °F 100% 29.83 in 10.0 mi Calm Calm - N/A   Overcast